Location: Newark
(45.2500°N, 7.5833°E)
Time: 01:55:23
(UTC+00:00)

SR - Pass Details

Date: 01 February 2020
Orbit: 575 x 881 km, 66.7° (Epoch: 21 February)

Event Time Altitude Azimuth Distance (km) Brightness Sun altitude
Rises 19:54:17 0° 208° (SSW) 3,409 ? -34.9°
Reaches altitude 10° 19:56:43 10° 207° (SSW) 2,500 ? -35.4°
Enters shadow 19:56:49 11° 207° (SSW) 2,465 ? -35.4°
